星链-1446 (STARLINK-1446 )

导读 | 星芒AI

STARLINK-1446 是 SpaceX Starlink 项目中的一颗低轨通信卫星,属于第14批发射的星链卫星群。该卫星于2020年11月25日通过猎鹰9号火箭成功送入近地轨道,运行高度约550公里,旨在为全球提供高速互联网服务。它采用先进的相控阵天线和激光通信技术,支持低延迟、高带宽的网络连接。作为星链星座的一部分,STARLINK-1446 有助于扩大覆盖范围,提升偏远地区的网络接入能力。

基本信息
目录编号:
45663
目录名称:
STARLINK-1446
国际标识:
2020-035G
轨道中心:
EARTH
卫星名称:
星链-1446
卫星全名:
星链-1446 (STARLINK-1446 )
卫星状态:
在轨 (已飞行1973 天)
发射日期:
2020-06-04 UTC
国别 :
美国 (US)
星等 :
--
轨道信息
数据来源 国际轨道数据
星历时间: 2025-10-28T12:42:00+0800
1天前
查看轨道信息
半长轴: 6844.417km
偏心率: 0.0001161
轨道倾角: 53.026°
近地点辐角 22.626°
升交点赤经 264.950°
平近点角 337.479°
近地点: 465.487km
远地点: 467.077km
周期: 93.921分钟
每日圈数: 15.331975
详细信息
固有亮度:
5
最大亮度:
2.5
卫星平台:
Starlink V1.0
覆盖范围:
全球
运营商:
太空探索技术公司
运营商所在国:
美国
制造商(研发单位):
太空探索技术公司
制造商所在国:
美国
使用方式:
暂无
卫星简介
星链(Starlink)计划是由太空探索技术公司(SpaceX)提出的一个巨型低轨卫星互联网星座项目,计划在2019年至2024年间在太空搭建由约1.2万颗卫星组成的“星链”网络,其中1584颗将部署在地球上空550千米处的近地轨道,并从2020年开始工作。该卫星仍在工作。
2D轨道图
3D轨道图
轨道高度分析图
轨道倾角分析图
轨道综合分析图
查看轨道综合分析图